Skip Page Navigation
NASA JPL Caltech
NASA Logo - Jet Propulsion Laboratory + View the NASA Portal
+ Center for Near-Earth Object Studies
JPL Home Earth Solar System Stars & Galaxies Technology
JPL Solar System Dynamics
BODIES ORBITS EPHEMERIDES TOOLS PHYSICAL DATA DISCOVERY FAQ SITE MAP
JPL Small-Body Database Browser
Search: [ help ]  
(2007 UD6)
Classification: Apollo [NEO]          SPK-ID: 3389466
Ephemeris | Orbit Diagram | Orbital Elements | Mission Design | Physical Parameters | Close-Approach Data ]

[ show orbit diagram ]
Orbital Elements at Epoch 2459000.5 (2020-May-31.0) TDB
Reference: JPL 10 (heliocentric ecliptic J2000)
 Element Value Uncertainty (1-sigma)   Units 
e .2421856464513208 4.2162e-05  
a 1.230970032448732 2.9913e-05 au
q .9328467593779328 7.4568e-05 au
i 1.693079549512906 9.7716e-05 deg
node 205.7241781333403 0.058236 deg
peri 131.5154431861671 0.073899 deg
M 111.0639680734666 0.42881 deg
tp 2458846.599393129540
(2019-Dec-29.09939313)
0.59981 TDB
period 498.8496218388022
1.37
0.018184
4.979e-05
d
yr
n .7216603646465829 2.6305e-05 deg/d
Q 1.529093305519532 3.7158e-05 au
  Orbit Determination Parameters
   # obs. used (total)      50  
   data-arc span      14 days  
   first obs. used      2007-10-20  
   last obs. used      2007-11-03  
   planetary ephem.      DE431  
   SB-pert. ephem.      SB431-N16  
   condition code      6  
   norm. resid. RMS      .48184  
   source      ORB  
   producer      Otto Matic  
   solution date      2017-Apr-06 09:05:33  

Additional Information
 Earth MOID = .000543788 au 
 Jupiter MOID = 3.82204 au 
 T_jup = 5.170 
[ show covariance matrix ]

Ephemeris | Orbit Diagram | Orbital Elements | Mission Design | Physical Parameters | Close-Approach Data ]

Physical Parameter Table
Parameter Symbol Value Units Sigma Reference Notes
absolute magnitude H 28.3   n/a MPO129015  

[ show close-approach data ]
Ephemeris | Orbit Diagram | Orbital Elements | Mission Design | Physical Parameters | Close-Approach Data ]
ABOUT SSD CREDITS/AWARDS PRIVACY/COPYRIGHT GLOSSARY LINKS
FirstGov 2020-Aug-06 09:00 UT
(server date/time)  
NASA Home Page
Site Manager:   Ryan S. Park
Webmaster  Alan B. Chamberlin